Location: Gisborne
(38.6530°S, 178.0040°E)
Time: 08:33:31
(UTC+13:00)

CZ-2D R/B - Pass Details

Date: 24 January 2019
Orbit: 522 x 540 km, 97.4° (Epoch: 20 February)

Event Time Altitude Azimuth Distance (km) Brightness Sun altitude
Rises 21:22:25 0° 175° (S) 2,736 7.3 -9.8°
Reaches altitude 10° 21:24:36 10° 180° (S) 1,836 6.5 -10.1°
Maximum altitude 21:28:26 49° 254° (WSW) 717 4.4 -10.7°
Drops below altitude 10° 21:32:13 10° 329° (NNW) 1,811 5.9 -11.3°
Sets 21:34:22 0° 334° (NNW) 2,694 6.7 -11.7°
